QPF
0.00 0.00 0.00 0.00 0.00 0.00 0.00 0.00 0.00 0.00 0.00 0.00 0.00 0.00 0.00 0.00 0.00 0.00 0.00 0.00 0.00 0.00 0.00 0.00 0.00 0.00 0.00 0.00 0.00 0.00 0.00 0.00 0.00 0.00 0.00 0.00 0.00 0.00 0.00 0.00 0.00 0.00 0.00 0.00
0.00 0.00 0.00 0.00 0.00 0.00 0.00 0.00 0.00 0.00 0.00 0.00 0.00 0.00 0.00 0.00 0.00 0.00 0.00 0.00 0.00 0.00 0.00 0.00 0.00 0.00 0.00 0.00 0.00 0.00 0.00 0.00 0.00 0.00 0.00 0.00 0.00 0.00 0.00 0.00 0.00 0.00 0.00 0.00
0.00 0.00 0.00 0.00 0.00 0.00 0.00 0.00 0.00 0.00 0.00 0.00 0.00 0.00 0.00 0.00 0.00 0.00 0.00 0.00 0.00 0.00 0.00 0.00 0.00 0.00 0.00 0.00 0.00 0.00 0.00 0.00 0.00 0.00 0.00 0.00 0.00 0.00 0.00 0.00 0.00 0.00 0.00 0.00
0.00 0.00 0.00 0.00 0.00 0.00 0.00 0.00 0.00 0.00 0.00 0.00 0.00 0.00 0.00 0.00 0.00 0.00 0.00 0.00 0.00 0.00 0.00 0.00 0.00 0.00 0.00 0.00 0.00 0.00 0.00 0.00 0.00 0.00 0.00 0.00 0.00 0.00 0.00 0.00 0.00 0.00 0.00 0.00
0.00 0.00 0.00 0.00 0.00 0.00 0.00 0.00 0.00 0.00 0.00 0.00 0.00 0.00 0.00 0.00 0.00 0.00 0.00 0.00 0.00 0.00 0.00 0.00 0.00 0.00 0.00 0.00 0.00 0.00 0.00 0.00 0.00 0.00 0.00 0.00 0.00 0.00 0.00 0.00 0.00 0.00 0.00 0.00
0.00 0.00 0.00 0.00 0.00 0.00 0.00 0.00 0.00 0.00 0.00 0.00 0.00 0.00 0.00 0.00 0.00 0.00 0.00 0.00 0.00 0.00 0.00 0.00 0.00 0.00 0.00 0.00 0.00 0.00 0.00 0.00 0.00 0.00 0.00 0.00 0.00 0.00 0.00 0.00 0.00 0.00 0.00 0.00
0.00 0.00 0.00 0.00 0.00 0.00 0.00 0.00 0.00 0.00 0.00 0.00 0.00 0.00 0.00 0.00 0.00 0.00 0.00 0.00 0.00 0.00 0.00 0.00 0.00 0.00 0.00 0.00 0.00 0.00 0.00 0.00 0.00 0.00 0.00 0.00 0.00 0.00 0.00 0.00 0.00 0.00 0.00 0.00
0.00 0.00 0.00 0.00 0.00 0.00 0.00 0.00 0.00 0.00 0.00 0.00 0.00 0.00 0.00 0.00 0.00 0.00 0.00 0.00 0.00 0.00 0.00 0.00 0.00 0.00 0.00 0.00 0.00 0.00 0.00 0.00 0.00 0.00 0.00 0.00 0.00 0.00 0.00 0.00 0.00 0.00 0.00 0.00
0.00 0.00 0.00 0.00 0.00 0.00 0.00 0.00 0.00 0.00 0.00 0.00 0.00 0.00 0.00 0.00 0.00 0.00 0.00 0.00 0.00 0.00 0.00 0.00 0.00 0.00 0.00 0.00 0.00 0.00 0.00 0.00 0.00 0.00 0.00 0.00 0.00 0.00 0.00 0.00 0.00 0.00 0.00 0.00
0.00 0.00 0.00 0.00 0.00 0.00 0.00 0.00 0.00 0.00 0.00 0.00 0.00 0.00 0.00 0.00 0.00 0.00 0.00 0.00 0.00 0.00 0.00 0.00 0.00 0.00 0.00 0.00 0.00 0.00 0.00 0.00 0.00 0.00 0.00 0.00 0.00 0.00 0.00 0.00 0.00 0.00 0.00 0.00
0.00 0.00 0.00 0.00 0.00 0.00 0.00 0.00 0.00 0.00 0.00 0.00 0.00 0.00 0.00 0.00 0.00 0.00 0.00 0.00 0.00 0.00 0.00 0.00 0.00 0.00 0.00 0.00 0.00 0.00 0.00 0.00 0.00 0.00 0.00 0.00 0.00 0.00 0.00 0.00 0.00 0.00 0.00 0.00
0.00 0.00 0.00 0.00 0.00 0.00 0.00 0.00 0.00 0.00 0.00 0.00 0.00 0.00 0.00 0.00 0.00 0.00 0.00 0.00 0.00 0.00 0.00 0.00 0.00 0.00 0.00 0.00 0.00 0.00 0.00 0.00 0.00 0.00 0.00 0.00 0.00 0.00 0.00 0.00 0.00 0.00 0.00 0.00
0.00 0.00 0.00 0.00 0.00 0.00 0.00 0.00 0.00 0.00 0.00 0.00 0.00 0.00 0.00 0.00 0.00 0.00 0.00 0.00 0.00 0.00 0.00 0.00 0.00 0.00 0.00 0.00 0.00 0.00 0.00 0.00 0.00 0.00 0.00 0.00 0.00 0.00 0.00 0.00 0.00 0.00 0.00 0.00
0.00 0.00 0.00 0.00 0.00 0.00 0.00 0.00 0.00 0.00 0.00 0.00 0.00 0.00 0.00 0.00 0.00 0.00 0.00 0.00 0.00 0.00 0.00 0.00 0.00 0.00 0.00 0.00 0.00 0.00 0.00 0.00 0.00 0.00 0.00 0.00 0.00 0.00 0.00 0.00 0.00 0.00 0.00 0.00
0.00 0.00 0.00 0.00 0.00 0.00 0.00 0.00 0.00 0.00 0.00 0.00 0.00 0.00 0.00 0.00 0.00 0.00 0.00 0.00 0.00 0.00 0.00 0.00 0.00 0.00 0.00 0.00 0.00 0.00 0.00 0.00 0.00 0.00 0.00 0.00 0.00 0.00 0.00 0.00 0.00 0.00 0.00 0.00
0.00 0.00 0.00 0.00 0.00 0.00 0.00 0.00 0.00 0.00 0.00 0.00 0.00 0.00 0.00 0.00 0.00 0.00 0.00 0.00 0.00 0.00 0.00 0.00 0.00 0.00 0.00 0.00 0.00 0.00 0.00 0.00 0.00 0.00 0.00 0.00 0.00 0.00 0.00 0.00 0.00 0.00 0.00 0.00
0.00 0.00 0.00 0.00 0.00 0.00 0.00 0.00 0.00 0.00 0.00 0.00 0.00 0.00 0.00 0.00 0.00 0.00 0.00 0.00 0.00 0.00 0.00 0.00 0.00 0.00 0.00 0.00 0.00 0.00 0.00 0.00 0.00 0.00 0.00 0.00 0.00 0.00 0.00 0.00 0.00 0.00 0.00 0.00
0.00 0.00 0.00 0.00 0.00 0.00 0.00 0.00 0.00 0.00 0.00 0.00 0.00 0.00 0.00 0.00 0.00 0.00 0.00 0.00 0.00 0.00 0.00 0.00 0.00 0.00 0.00 0.00 0.00 0.00 0.00 0.00 0.00 0.00 0.00 0.00 0.00 0.00 0.00 0.00 0.00 0.00 0.00 0.00
0.00 0.00 0.00 0.00 0.00 0.00 0.00 0.00 0.00 0.00 0.00 0.00 0.00 0.00 0.00 0.00 0.00 0.00 0.00 0.00 0.00 0.00 0.00 0.00 0.00 0.00 0.00 0.00 0.00 0.00 0.00 0.00 0.00 0.00 0.00 0.00 0.00 0.00 0.00 0.00 0.00 0.00 0.00 0.00
0.00 0.00 0.00 0.00 0.00 0.00 0.00 0.00 0.00 0.00 0.00 0.00 0.00 0.00 0.00 0.00 0.00 0.00 0.00 0.00 0.00 0.00 0.00 0.00 0.00 0.00 0.00 0.00 0.00 0.00 0.00 0.00 0.00 0.00 0.00 0.00 0.00 0.00 0.00 0.00 0.00 0.00 0.00 0.00
0.00 0.00 0.00 0.00 0.00 0.00 0.00 0.00 0.00 0.00 0.00 0.00 0.00 0.00 0.00 0.00 0.00 0.00 0.00 0.00 0.00 0.00 0.00 0.00 0.00 0.00 0.00 0.00 0.00 0.00 0.00 0.00 0.00 0.00 0.00 0.00 0.00 0.00 0.00 0.00 0.00 0.00 0.00 0.00
0.00 0.00 0.00 0.00 0.00 0.00 0.00 0.00 0.00 0.00 0.00 0.00 0.00 0.00 0.00 0.00 0.00 0.00 0.00 0.00 0.00 0.00 0.00 0.00 0.00 0.00 0.00 0.00 0.00 0.00 0.00 0.00 0.00 0.00 0.00 0.00 0.00 0.00 0.00 0.00 0.00 0.00 0.00 0.00
0.00 0.00 0.00 0.00 0.00 0.00 0.00 0.00 0.00 0.00 0.00 0.00 0.00 0.00 0.00 0.00 0.00 0.00 0.00 0.00 0.00 0.00 0.00 0.00 0.00 0.00 0.00 0.00 0.00 0.00 0.00 0.00 0.00 0.00 0.00 0.00 0.00 0.00 0.00 0.00 0.00 0.00 0.00 0.00
0.00 0.00 0.00 0.00 0.00 0.00 0.00 0.00 0.00 0.00 0.00 0.00 0.00 0.00 0.00 0.00 0.00 0.00 0.00 0.00 0.00 0.00 0.00 0.00 0.00 0.00 0.00 0.00 0.00 0.00 0.00 0.00 0.00 0.00 0.00 0.00 0.00 0.00 0.00 0.00 0.00 0.00 0.00 0.00
0.00 0.00 0.00 0.00 0.00 0.00 0.00 0.00 0.00 0.00 0.00 0.00 0.00 0.00 0.00 0.00 0.00 0.00 0.00 0.00 0.00 0.00 0.00 0.00 0.00 0.00 0.00 0.00 0.00 0.00 0.00 0.00 0.00 0.00 0.00 0.00 0.00 0.00 0.00 0.00 0.00 0.00 0.00 0.00
0.00 0.00 0.00 0.00 0.00 0.00 0.00 0.00 0.00 0.00 0.00 0.00 0.00 0.00 0.00 0.00 0.00 0.00 0.00 0.00 0.00 0.00 0.00 0.00 0.00 0.00 0.00 0.00 0.00 0.00 0.00 0.00 0.00 0.00 0.00 0.00 0.00 0.00 0.00 0.00 0.00 0.00 0.00 0.00
MSLP
1016.48 1016.76 1016.96 1017.08 1017.14 1017.17 1017.16 1017.10 1016.97 1016.72 1016.33 1015.79 1015.11 1014.31 1013.45 1012.60 1011.81 1011.13 1010.60 1010.23 1009.99 1009.87 1009.87 1009.95 1010.12 1010.40 1010.80 1011.34 1012.02 1012.82 1013.71 1014.63 1015.51 1016.31 1016.97 1017.49 1017.87 1018.15 1018.37 1018.58 1018.83 1019.15 1019.53 1019.98
1016.57 1016.79 1016.95 1017.07 1017.16 1017.24 1017.29 1017.29 1017.21 1017.00 1016.63 1016.09 1015.39 1014.58 1013.71 1012.85 1012.07 1011.41 1010.91 1010.56 1010.33 1010.21 1010.15 1010.16 1010.22 1010.37 1010.62 1011.01 1011.55 1012.24 1013.06 1013.93 1014.80 1015.60 1016.29 1016.83 1017.22 1017.48 1017.68 1017.86 1018.06 1018.32 1018.66 1019.07
1016.54 1016.69 1016.82 1016.94 1017.07 1017.22 1017.35 1017.44 1017.42 1017.27 1016.92 1016.39 1015.69 1014.87 1013.99 1013.14 1012.39 1011.79 1011.35 1011.05 1010.88 1010.78 1010.71 1010.67 1010.64 1010.65 1010.74 1010.96 1011.34 1011.89 1012.58 1013.37 1014.19 1014.98 1015.66 1016.21 1016.61 1016.87 1017.05 1017.19 1017.34 1017.55 1017.84 1018.20
1016.42 1016.52 1016.62 1016.76 1016.95 1017.17 1017.39 1017.57 1017.63 1017.52 1017.21 1016.68 1015.97 1015.13 1014.25 1013.41 1012.70 1012.15 1011.78 1011.57 1011.47 1011.43 1011.39 1011.32 1011.23 1011.13 1011.08 1011.13 1011.34 1011.71 1012.26 1012.94 1013.68 1014.42 1015.08 1015.62 1016.01 1016.27 1016.43 1016.54 1016.65 1016.80 1017.03 1017.34
1016.29 1016.34 1016.43 1016.60 1016.84 1017.14 1017.46 1017.72 1017.85 1017.79 1017.49 1016.96 1016.22 1015.35 1014.45 1013.61 1012.92 1012.42 1012.12 1012.00 1011.99 1012.02 1012.03 1011.97 1011.84 1011.67 1011.50 1011.41 1011.45 1011.66 1012.05 1012.59 1013.23 1013.89 1014.50 1015.01 1015.39 1015.64 1015.77 1015.85 1015.92 1016.03 1016.20 1016.46
1016.17 1016.20 1016.30 1016.50 1016.80 1017.18 1017.57 1017.91 1018.09 1018.06 1017.76 1017.21 1016.43 1015.53 1014.59 1013.73 1013.04 1012.56 1012.32 1012.27 1012.34 1012.45 1012.52 1012.50 1012.37 1012.15 1011.91 1011.69 1011.59 1011.64 1011.88 1012.27 1012.79 1013.35 1013.90 1014.36 1014.71 1014.93 1015.05 1015.10 1015.13 1015.20 1015.33 1015.54
1016.11 1016.14 1016.26 1016.49 1016.85 1017.28 1017.74 1018.12 1018.33 1018.31 1018.01 1017.42 1016.61 1015.65 1014.67 1013.77 1013.07 1012.60 1012.39 1012.38 1012.52 1012.70 1012.83 1012.86 1012.75 1012.51 1012.22 1011.92 1011.70 1011.62 1011.71 1011.96 1012.35 1012.80 1013.26 1013.66 1013.96 1014.15 1014.23 1014.26 1014.26 1014.30 1014.39 1014.57
1016.09 1016.14 1016.28 1016.55 1016.94 1017.42 1017.90 1018.31 1018.53 1018.51 1018.19 1017.57 1016.72 1015.73 1014.71 1013.78 1013.05 1012.58 1012.37 1012.39 1012.56 1012.78 1012.97 1013.03 1012.95 1012.72 1012.40 1012.05 1011.75 1011.55 1011.52 1011.64 1011.90 1012.23 1012.59 1012.92 1013.16 1013.31 1013.36 1013.36 1013.34 1013.35 1013.41 1013.56
1016.10 1016.17 1016.35 1016.64 1017.04 1017.53 1018.01 1018.41 1018.63 1018.59 1018.25 1017.63 1016.76 1015.75 1014.72 1013.78 1013.04 1012.55 1012.34 1012.35 1012.53 1012.77 1012.98 1013.07 1013.01 1012.80 1012.47 1012.09 1011.73 1011.45 1011.31 1011.32 1011.46 1011.68 1011.94 1012.18 1012.36 1012.46 1012.48 1012.45 1012.40 1012.38 1012.42 1012.54
1016.12 1016.22 1016.41 1016.70 1017.10 1017.55 1018.00 1018.37 1018.55 1018.50 1018.16 1017.54 1016.70 1015.71 1014.71 1013.79 1013.05 1012.56 1012.34 1012.34 1012.50 1012.72 1012.93 1013.03 1012.98 1012.78 1012.45 1012.06 1011.66 1011.33 1011.12 1011.03 1011.06 1011.18 1011.34 1011.50 1011.61 1011.66 1011.64 1011.58 1011.51 1011.46 1011.47 1011.55
1016.15 1016.27 1016.46 1016.72 1017.07 1017.46 1017.84 1018.14 1018.28 1018.20 1017.86 1017.28 1016.50 1015.59 1014.65 1013.79 1013.10 1012.63 1012.40 1012.38 1012.50 1012.69 1012.86 1012.94 1012.89 1012.69 1012.37 1011.98 1011.58 1011.22 1010.95 1010.79 1010.74 1010.78 1010.85 1010.93 1010.98 1010.98 1010.92 1010.83 1010.72 1010.63 1010.59 1010.62
1016.20 1016.33 1016.49 1016.71 1016.97 1017.27 1017.54 1017.75 1017.82 1017.70 1017.38 1016.85 1016.15 1015.35 1014.53 1013.78 1013.17 1012.74 1012.51 1012.47 1012.54 1012.68 1012.80 1012.84 1012.77 1012.57 1012.26 1011.88 1011.48 1011.11 1010.82 1010.62 1010.52 1010.48 1010.49 1010.51 1010.50 1010.44 1010.34 1010.21 1010.06 1009.92 1009.83 1009.79
1016.31 1016.43 1016.56 1016.70 1016.85 1017.01 1017.15 1017.23 1017.21 1017.05 1016.74 1016.27 1015.68 1015.02 1014.34 1013.72 1013.21 1012.85 1012.64 1012.57 1012.61 1012.68 1012.74 1012.73 1012.62 1012.41 1012.11 1011.75 1011.38 1011.03 1010.73 1010.52 1010.38 1010.30 1010.25 1010.21 1010.15 1010.05 1009.90 1009.72 1009.53 1009.33 1009.17 1009.04
1016.50 1016.61 1016.68 1016.73 1016.75 1016.76 1016.74 1016.68 1016.55 1016.33 1016.02 1015.61 1015.13 1014.60 1014.08 1013.60 1013.21 1012.93 1012.75 1012.67 1012.66 1012.67 1012.66 1012.59 1012.45 1012.23 1011.94 1011.61 1011.26 1010.94 1010.67 1010.45 1010.29 1010.18 1010.09 1010.00 1009.89 1009.75 1009.56 1009.34 1009.09 1008.84 1008.59 1008.38
1016.78 1016.87 1016.89 1016.83 1016.72 1016.57 1016.38 1016.16 1015.91 1015.62 1015.29 1014.93 1014.54 1014.15 1013.78 1013.44 1013.17 1012.96 1012.82 1012.73 1012.67 1012.62 1012.55 1012.43 1012.25 1012.02 1011.74 1011.44 1011.13 1010.85 1010.60 1010.39 1010.22 1010.09 1009.96 1009.83 1009.68 1009.49 1009.26 1008.99 1008.70 1008.39 1008.07 1007.78
1017.11 1017.19 1017.14 1016.99 1016.75 1016.45 1016.10 1015.73 1015.36 1014.99 1014.64 1014.31 1014.00 1013.72 1013.48 1013.27 1013.10 1012.96 1012.85 1012.76 1012.66 1012.55 1012.42 1012.25 1012.04 1011.79 1011.53 1011.25 1010.98 1010.73 1010.50 1010.31 1010.13 1009.97 1009.81 1009.64 1009.44 1009.21 1008.94 1008.63 1008.29 1007.93 1007.55 1007.18
1017.43 1017.48 1017.39 1017.16 1016.81 1016.38 1015.90 1015.40 1014.92 1014.48 1014.11 1013.80 1013.55 1013.37 1013.23 1013.13 1013.04 1012.96 1012.88 1012.78 1012.65 1012.49 1012.31 1012.09 1011.85 1011.59 1011.33 1011.07 1010.83 1010.59 1010.38 1010.18 1009.99 1009.79 1009.59 1009.37 1009.12 1008.85 1008.54 1008.20 1007.83 1007.43 1007.01 1006.59
1017.62 1017.66 1017.54 1017.25 1016.83 1016.30 1015.72 1015.14 1014.59 1014.11 1013.72 1013.43 1013.24 1013.13 1013.08 1013.06 1013.04 1013.01 1012.95 1012.84 1012.68 1012.48 1012.25 1011.99 1011.72 1011.44 1011.18 1010.92 1010.68 1010.45 1010.23 1010.00 1009.78 1009.54 1009.28 1009.01 1008.71 1008.39 1008.05 1007.68 1007.28 1006.86 1006.42 1005.96
1017.61 1017.63 1017.49 1017.17 1016.71 1016.14 1015.52 1014.90 1014.32 1013.84 1013.46 1013.21 1013.07 1013.03 1013.05 1013.09 1013.13 1013.14 1013.09 1012.97 1012.79 1012.55 1012.28 1011.98 1011.67 1011.37 1011.09 1010.81 1010.56 1010.31 1010.05 1009.79 1009.51 1009.21 1008.90 1008.56 1008.21 1007.85 1007.47 1007.08 1006.67 1006.24 1005.79 1005.33
1017.35 1017.35 1017.19 1016.87 1016.41 1015.85 1015.24 1014.63 1014.09 1013.63 1013.31 1013.11 1013.03 1013.05 1013.13 1013.23 1013.31 1013.34 1013.30 1013.18 1012.98 1012.71 1012.40 1012.06 1011.72 1011.38 1011.06 1010.76 1010.46 1010.17 1009.87 1009.54 1009.20 1008.83 1008.45 1008.05 1007.65 1007.25 1006.84 1006.44 1006.03 1005.60 1005.16 1004.70
1016.86 1016.83 1016.66 1016.35 1015.93 1015.42 1014.87 1014.33 1013.85 1013.48 1013.23 1013.10 1013.10 1013.18 1013.31 1013.46 1013.57 1013.61 1013.57 1013.44 1013.22 1012.93 1012.58 1012.20 1011.82 1011.44 1011.08 1010.73 1010.38 1010.03 1009.67 1009.28 1008.87 1008.43 1007.98 1007.52 1007.07 1006.63 1006.21 1005.79 1005.38 1004.97 1004.55 1004.11
1016.22 1016.15 1015.97 1015.69 1015.32 1014.88 1014.43 1014.00 1013.63 1013.36 1013.20 1013.17 1013.23 1013.37 1013.55 1013.72 1013.85 1013.90 1013.85 1013.71 1013.47 1013.14 1012.76 1012.35 1011.92 1011.50 1011.09 1010.69 1010.28 1009.87 1009.45 1008.99 1008.52 1008.02 1007.51 1007.01 1006.51 1006.05 1005.60 1005.18 1004.78 1004.38 1003.97 1003.55
1015.55 1015.43 1015.24 1014.98 1014.68 1014.34 1014.00 1013.69 1013.45 1013.29 1013.24 1013.28 1013.41 1013.59 1013.79 1013.98 1014.10 1014.14 1014.08 1013.91 1013.64 1013.29 1012.88 1012.43 1011.97 1011.51 1011.04 1010.59 1010.14 1009.67 1009.19 1008.68 1008.16 1007.61 1007.06 1006.52 1006.00 1005.51 1005.05 1004.63 1004.23 1003.83 1003.44 1003.03
1014.95 1014.78 1014.58 1014.35 1014.11 1013.87 1013.65 1013.47 1013.35 1013.30 1013.33 1013.44 1013.61 1013.81 1014.02 1014.18 1014.28 1014.29 1014.20 1014.00 1013.70 1013.32 1012.87 1012.39 1011.89 1011.39 1010.89 1010.40 1009.91 1009.40 1008.88 1008.34 1007.79 1007.22 1006.64 1006.08 1005.54 1005.03 1004.56 1004.13 1003.72 1003.32 1002.93 1002.53
1014.52 1014.30 1014.09 1013.89 1013.72 1013.57 1013.45 1013.38 1013.36 1013.40 1013.50 1013.65 1013.83 1014.01 1014.19 1014.31 1014.36 1014.32 1014.18 1013.93 1013.59 1013.18 1012.70 1012.19 1011.67 1011.14 1010.61 1010.09 1009.57 1009.05 1008.52 1007.96 1007.40 1006.82 1006.24 1005.67 1005.12 1004.60 1004.11 1003.66 1003.23 1002.82 1002.42 1002.02
1014.29 1014.03 1013.81 1013.64 1013.53 1013.46 1013.43 1013.44 1013.50 1013.59 1013.72 1013.87 1014.03 1014.18 1014.29 1014.34 1014.32 1014.21 1014.00 1013.70 1013.32 1012.87 1012.36 1011.83 1011.28 1010.74 1010.20 1009.67 1009.15 1008.62 1008.09 1007.55 1006.99 1006.42 1005.85 1005.27 1004.72 1004.18 1003.67 1003.19 1002.73 1002.29 1001.87 1001.46
Thickness
5705 5693 5688 5698 5700 5697 5693 5687 5685 5697 5712 5704 5698 5704 5718 5729 5731 5727 5726 5725 5726 5728 5734 5736 5732 5726 5717 5708 5700 5692 5683 5675 5666 5660 5654 5650 5646 5643 5640 5637 5632 5626 5619 5611
5692 5685 5697 5701 5698 5692 5687 5681 5684 5698 5708 5699 5696 5699 5716 5727 5725 5723 5720 5718 5716 5717 5719 5722 5721 5716 5710 5702 5695 5689 5682 5674 5667 5661 5656 5650 5645 5641 5638 5633 5628 5622 5615 5608
5684 5694 5696 5692 5688 5684 5683 5681 5683 5683 5689 5697 5693 5693 5713 5720 5722 5719 5715 5712 5710 5709 5707 5708 5709 5706 5701 5695 5690 5685 5678 5672 5665 5657 5648 5643 5638 5634 5631 5629 5624 5619 5612 5605
5689 5694 5688 5683 5681 5684 5675 5682 5679 5676 5668 5671 5684 5663 5693 5704 5705 5706 5703 5701 5701 5702 5701 5700 5698 5697 5693 5689 5685 5678 5672 5666 5659 5650 5643 5637 5633 5633 5632 5624 5618 5612 5606 5600
5685 5689 5683 5677 5680 5679 5680 5680 5674 5669 5663 5660 5675 5666 5682 5702 5693 5693 5694 5695 5695 5694 5692 5690 5689 5687 5686 5682 5677 5671 5665 5658 5652 5645 5638 5630 5627 5624 5618 5613 5609 5604 5599 5593
5686 5688 5684 5681 5679 5677 5674 5672 5671 5665 5657 5649 5676 5668 5672 5693 5691 5687 5687 5687 5686 5684 5681 5679 5678 5677 5675 5672 5667 5662 5657 5651 5645 5638 5632 5625 5620 5614 5608 5604 5600 5596 5591 5586
5683 5680 5680 5677 5670 5670 5666 5658 5653 5647 5637 5649 5674 5666 5670 5693 5693 5686 5679 5677 5676 5674 5670 5667 5665 5663 5662 5660 5657 5652 5647 5641 5636 5631 5625 5620 5613 5606 5601 5596 5591 5587 5583 5579
5673 5668 5671 5670 5669 5661 5666 5658 5641 5632 5641 5651 5667 5657 5676 5695 5690 5684 5676 5671 5667 5664 5661 5658 5655 5653 5650 5649 5646 5642 5637 5632 5627 5622 5617 5612 5606 5600 5596 5590 5585 5581 5577 5573
5668 5666 5669 5671 5670 5662 5660 5657 5655 5638 5638 5633 5650 5672 5688 5690 5680 5672 5665 5660 5655 5653 5651 5648 5646 5644 5641 5639 5636 5633 5629 5624 5619 5614 5609 5604 5599 5593 5589 5584 5579 5574 5570 5565
5666 5658 5665 5659 5658 5653 5651 5648 5641 5630 5620 5618 5643 5654 5657 5668 5664 5661 5655 5649 5646 5644 5641 5639 5636 5633 5632 5629 5627 5624 5620 5615 5611 5606 5600 5596 5591 5586 5582 5577 5572 5567 5562 5556
5663 5651 5655 5651 5647 5650 5639 5639 5634 5629 5629 5613 5613 5636 5668 5663 5659 5653 5647 5643 5639 5636 5632 5629 5626 5624 5622 5620 5617 5614 5610 5607 5602 5597 5592 5587 5582 5577 5572 5568 5564 5559 5554 5549
5657 5646 5642 5654 5657 5655 5651 5644 5634 5617 5619 5621 5609 5626 5668 5662 5653 5645 5639 5637 5634 5630 5626 5622 5618 5615 5613 5609 5607 5604 5601 5597 5592 5587 5582 5577 5572 5567 5562 5558 5555 5550 5545 5540
5647 5635 5628 5638 5633 5634 5634 5636 5632 5623 5614 5607 5600 5620 5658 5654 5644 5636 5632 5629 5626 5623 5619 5615 5611 5606 5603 5601 5598 5595 5591 5587 5583 5578 5572 5566 5561 5556 5552 5548 5545 5540 5536 5531
5637 5628 5622 5620 5627 5629 5626 5627 5625 5614 5603 5603 5610 5623 5638 5638 5632 5628 5625 5621 5617 5614 5610 5607 5602 5598 5595 5592 5589 5585 5581 5577 5572 5567 5560 5555 5550 5545 5541 5537 5533 5528 5524 5520
5625 5616 5621 5624 5629 5627 5624 5623 5621 5615 5613 5608 5617 5620 5627 5627 5622 5619 5616 5612 5609 5606 5604 5599 5594 5589 5586 5583 5579 5574 5570 5565 5560 5555 5548 5543 5539 5534 5529 5524 5519 5515 5511 5508
5616 5609 5611 5612 5618 5618 5620 5624 5622 5620 5619 5616 5616 5618 5627 5620 5617 5610 5605 5601 5599 5598 5594 5589 5585 5580 5576 5572 5567 5562 5557 5553 5547 5541 5536 5532 5526 5521 5515 5510 5506 5502 5498 5495
5609 5602 5598 5596 5608 5607 5607 5625 5625 5624 5626 5620 5611 5614 5615 5610 5605 5599 5595 5592 5590 5586 5582 5577 5573 5569 5564 5558 5553 5548 5544 5539 5533 5527 5522 5518 5513 5507 5502 5498 5494 5490 5486 5483
5604 5597 5589 5585 5591 5581 5613 5634 5630 5622 5618 5616 5613 5609 5604 5599 5595 5592 5587 5581 5576 5572 5569 5565 5560 5555 5549 5544 5538 5533 5529 5523 5517 5512 5507 5503 5497 5492 5488 5484 5480 5477 5475 5472
5597 5590 5582 5575 5574 5588 5613 5621 5617 5609 5606 5609 5603 5598 5595 5591 5585 5581 5578 5570 5564 5560 5556 5551 5545 5539 5533 5527 5522 5517 5512 5507 5502 5498 5493 5488 5482 5477 5473 5470 5467 5465 5463 5461
5583 5581 5572 5568 5561 5569 5604 5604 5606 5597 5588 5592 5590 5584 5579 5573 5561 5563 5561 5557 5552 5547 5541 5536 5529 5522 5515 5510 5505 5499 5495 5491 5487 5484 5479 5474 5468 5463 5460 5458 5456 5453 5451 5449
5571 5567 5562 5558 5557 5575 5600 5595 5593 5576 5576 5581 5578 5571 5563 5554 5547 5549 5547 5542 5536 5531 5524 5518 5511 5503 5497 5492 5487 5482 5478 5475 5472 5468 5464 5459 5454 5449 5446 5445 5442 5439 5438 5436
5575 5566 5561 5558 5554 5565 5587 5585 5577 5573 5575 5572 5565 5557 5550 5545 5541 5536 5531 5525 5519 5512 5506 5499 5492 5486 5481 5474 5469 5467 5463 5460 5456 5452 5448 5444 5440 5436 5433 5430 5429 5426 5424 5422
5581 5581 5575 5571 5572 5585 5581 5578 5574 5569 5562 5557 5549 5543 5537 5531 5525 5520 5513 5506 5499 5493 5487 5481 5474 5470 5466 5458 5452 5449 5448 5444 5441 5438 5433 5429 5426 5422 5419 5417 5416 5414 5411 5409
5582 5583 5571 5566 5575 5576 5573 5569 5563 5556 5548 5543 5536 5529 5522 5514 5508 5500 5493 5486 5480 5475 5468 5463 5457 5453 5451 5445 5438 5432 5431 5428 5426 5423 5419 5416 5413 5411 5409 5406 5403 5401 5400 5398
5567 5563 5557 5556 5561 5560 5561 5552 5545 5540 5534 5527 5521 5513 5504 5497 5489 5482 5474 5468 5463 5458 5451 5446 5440 5437 5435 5430 5425 5419 5416 5414 5412 5410 5407 5403 5400 5398 5398 5396 5394 5393 5392 5389
5553 5545 5541 5545 5546 5539 5536 5533 5528 5522 5515 5509 5502 5494 5487 5479 5471 5465 5458 5453 5447 5442 5436 5431 5426 5422 5418 5415 5412 5408 5404 5401 5399 5397 5394 5391 5389 5388 5387 5387 5388 5388 5386 5387